sat.trackr.live / text

‹ back to catalog

STARLINK-36673

NORAD 67660 · 2026-022N

PAYLOAD ACTIVE UNKNOWN

§ Identity

Operator
Country
US
Launch date
2026-02-02
Launch site
AFWTR
Launch vehicle
Mass (kg)
RCS (m²)

Purposes: comms

External: N2YO · Heavens-Above · Gunter

§ Orbital elements

Epoch: 2026-09-18T01:21:57.690144Z

Period
93.91 min
Inclination
97.2847°
Eccentricity
0.0001692
Mean motion
15.33439191 rev/d
Perigee alt
464.4 km
Apogee alt
466.7 km
Semi-major
6,843.7 km
B*
5.1586e-4
RAAN
292.6681°
Arg perigee
88.7755°
Mean anomaly
271.3681°
Rev number
3,505

§ Raw data

STARLINK-366731 67660U 26022N   26261.05691771  .00016613  00000+0  51586-3 0  99942 67660  97.2847 292.6681 0001692  88.7755 271.3681 15.33439191 35056

JSON: /api/v1/satellites/67660 · /tle

For live sub-satellite position, see the globe view (requires WebGL).

§ Visibility from observer

Set your observer location to see the next 7 days of passes ≥ 10°. The values pass through the URL so the page stays shareable.

No JS? Fill the form by hand. The geolocation button needs JavaScript.